Location: Elstree
(51.6403°N, 0.2969°W)
Time: 14:25:37
(UTC+00:00)

Meteor 1-19 Rocket - Pass Details

Date: 03 March 2021
Orbit: 807 x 928 km, 81.2° (Epoch: 13 April)

Event Time Altitude Azimuth Distance (km) Brightness Sun altitude
Rises 18:39:22 0° 346° (NNW) 3,576 7.7 -9.2°
Reaches altitude 10° 18:41:53 10° 347° (NNW) 2,620 7.0 -9.6°
Maximum altitude 18:47:53 90° 270° (W) 907 4.4 -10.5°
Drops below altitude 10° 18:53:41 10° 169° (S) 2,530 6.5 -11.4°
Sets 18:56:05 0° 170° (S) 3,446 7.2 -11.8°
